Wind_Speed
23 23 23 22 20 18 15 13 12 12 12 12 12 12 12 12 11 11 11 10 7 5 6 7 8 6 2 4 5 5 5 5 5 4 4 3 3 3 3 3 1 2 4
22 23 22 21 20 19 17 15 13 12 12 11 12 11 12 12 11 11 10 10 10 9 9 9 9 8 6 3 1 2 3 3 4 5 5 4 4 5 6 6 6 3 0
20 20 19 19 19 19 17 16 13 12 11 11 11 11 12 12 12 11 10 10 10 11 11 10 9 9 8 7 4 2 1 2 2 3 4 5 7 7 6 7 8 7 5
16 17 16 16 16 17 16 15 13 12 11 10 10 10 10 11 10 10 10 10 10 11 11 11 10 9 9 8 8 5 2 1 1 1 3 5 6 5 5 6 9 8 7
12 13 13 13 13 14 15 15 14 12 11 10 9 8 8 9 9 8 9 9 9 9 10 11 11 9 8 8 8 7 5 3 3 5 6 7 6 5 5 6 7 8 8
8 9 10 11 11 11 11 12 13 13 13 11 10 9 8 7 7 8 9 10 9 8 8 9 10 10 8 6 7 7 6 5 5 5 7 8 7 7 8 9 9 9 9
3 3 5 7 8 8 8 9 11 12 13 12 12 11 9 8 8 9 9 10 10 8 7 8 9 10 9 6 6 6 5 5 6 6 8 8 9 9 10 10 10 9 8
6 5 3 1 3 5 6 6 8 9 10 11 11 11 11 10 10 11 11 10 10 9 7 7 9 10 10 9 7 5 5 6 6 7 9 9 10 10 11 10 9 9 9
8 8 8 7 5 5 5 5 5 6 7 8 9 10 10 10 10 11 12 11 10 9 7 7 9 10 10 10 9 7 6 8 8 9 10 11 11 10 10 11 11 11 10
11 11 11 12 11 10 9 8 6 5 6 6 8 9 10 9 8 9 10 11 11 10 8 7 8 9 9 9 9 8 7 8 9 10 11 12 13 9 8 10 12 14 14
13 14 14 14 15 15 15 13 11 9 8 9 10 11 11 11 9 8 8 10 10 10 9 7 8 8 9 9 9 8 7 7 8 10 12 12 12 11 12 13 13 14 16
15 15 16 16 16 17 17 16 15 13 12 12 13 15 16 14 12 11 10 10 10 9 8 6 8 9 9 9 10 9 8 7 8 10 11 12 12 13 13 13 14 15 16
16 17 17 17 17 16 15 15 15 16 15 14 15 16 17 17 15 14 12 12 11 10 8 8 8 9 10 10 10 10 10 9 9 10 11 12 13 14 14 13 13 14 13
16 17 18 19 17 16 15 14 13 12 11 11 12 15 17 17 17 16 15 15 13 12 11 10 11 11 12 11 11 11 11 10 9 10 12 13 14 15 15 13 12 13 13
20 19 20 19 17 16 16 15 13 11 10 11 12 14 15 15 15 15 16 17 17 16 15 14 14 14 14 14 14 14 14 12 11 10 12 13 14 15 15 15 13 12 13
27 25 23 19 17 17 16 15 13 13 14 16 15 13 13 14 14 15 16 18 19 18 17 17 18 19 18 17 17 17 17 15 13 12 12 14 15 15 16 16 16 14 13
26 25 25 22 18 19 19 18 16 15 16 15 15 14 14 14 14 15 16 16 18 18 18 20 21 23 23 22 20 18 17 15 13 13 13 14 17 17 17 17 17 15 13
26 24 26 27 25 23 24 22 20 18 16 15 15 15 16 16 16 16 15 17 19 20 20 21 21 23 25 26 23 20 18 16 15 15 14 15 17 18 17 16 16 16 15
27 27 29 31 30 26 24 22 20 19 18 16 16 16 17 18 18 19 18 19 21 20 20 20 21 23 25 26 25 22 19 18 17 17 17 17 17 17 17 16 16 16 15
33 32 33 33 31 27 23 22 22 21 20 19 19 18 19 20 20 20 21 21 23 23 23 22 22 23 24 24 24 23 21 20 18 17 18 18 16 15 16 17 17 15 14
32 34 37 36 32 29 29 28 26 24 23 22 22 21 22 24 24 24 25 26 26 26 24 24 23 23 24 24 24 22 21 21 19 18 17 17 15 14 14 17 17 15 13
30 35 39 37 35 35 35 33 30 27 25 24 24 24 25 26 27 28 29 29 28 27 25 24 23 23 24 25 25 23 21 21 21 19 17 16 15 14 14 16 17 16 14
34 35 36 36 38 41 42 38 32 28 25 26 27 27 27 29 29 29 30 29 28 26 25 24 23 23 24 25 24 23 21 21 21 20 18 15 14 14 14 15 16 17 16
37 38 38 38 40 41 42 38 32 27 25 28 30 30 30 32 32 31 31 30 29 27 26 26 24 22 23 23 23 22 20 20 20 18 18 15 13 12 12 13 15 17 15
38 41 42 40 39 38 34 31 28 27 28 30 31 32 32 33 34 33 32 31 31 30 29 28 24 21 21 22 22 21 20 20 20 18 16 14 14 12 12 12 13 15 16
35 39 42 40 39 39 39 36 33 32 32 31 31 33 34 35 36 36 35 34 34 33 32 28 24 21 21 21 22 22 20 19 19 16 14 15 15 12 12 12 12 13 13
Wind_Direction
91 85 81 78 74 71 70 68 66 65 65 64 61 57 57 57 57 57 53 51 52 45 30 27 29 34 73 166 175 183 198 203 189 174 185 199 207 221 226 233 240 53 59
93 87 81 78 76 71 68 67 67 66 66 64 63 59 56 54 52 52 52 50 48 46 39 34 31 29 30 52 143 177 184 186 181 185 204 227 251 261 252 237 235 243 246
94 89 82 78 75 73 71 67 64 63 62 59 58 59 59 54 51 50 50 46 43 44 47 44 36 35 29 25 30 45 99 106 152 191 234 260 278 283 269 242 237 250 243
95 91 86 78 73 70 68 66 60 54 53 54 52 52 54 51 47 47 46 43 40 40 44 48 44 42 37 32 28 25 13 275 251 301 303 294 295 293 290 262 247 258 253
99 94 88 80 70 65 63 61 56 46 39 38 40 40 40 40 36 35 33 31 32 35 38 42 44 44 46 43 34 25 9 348 295 297 307 312 305 291 295 296 278 263 259
114 104 97 88 77 67 61 58 54 49 41 33 26 20 13 15 22 20 16 13 16 25 33 35 37 36 38 41 37 25 5 343 330 322 317 307 300 285 286 298 285 266 264
175 137 105 91 79 68 60 56 53 50 42 35 28 20 7 356 356 1 6 8 8 12 19 23 25 27 26 28 32 26 11 350 337 332 317 314 311 296 284 294 291 274 263
238 256 274 334 26 31 34 42 48 48 43 34 26 22 17 7 355 350 355 1 4 9 17 16 14 15 15 14 15 7 357 359 358 340 327 322 318 303 282 283 290 280 265
247 256 267 278 292 311 331 350 10 20 27 28 21 17 9 5 1 354 354 357 360 2 10 18 14 11 9 7 6 359 341 338 343 343 339 336 326 303 272 269 277 280 269
256 258 262 270 277 284 293 303 305 315 331 346 352 356 351 344 346 351 353 351 351 350 355 4 8 7 4 1 360 357 344 333 333 335 336 335 338 318 279 281 283 274 268
263 263 264 269 277 285 288 288 286 283 290 304 314 322 325 324 323 325 331 335 337 338 345 349 350 349 350 351 350 350 343 333 332 331 330 328 329 326 293 282 289 279 263
267 269 270 272 276 281 285 286 283 277 274 284 297 305 307 306 304 301 305 312 320 323 333 335 330 329 330 337 341 342 341 335 328 322 322 323 321 321 320 300 295 297 274
272 278 279 277 278 281 287 288 285 282 281 284 294 299 301 298 296 294 299 303 309 313 319 322 317 315 316 320 327 332 338 337 327 319 316 317 316 315 315 312 307 304 293
274 280 284 284 287 291 291 287 284 285 286 289 297 302 301 299 296 297 298 299 299 296 300 308 308 305 306 306 310 315 322 326 321 316 315 314 314 313 311 312 313 312 306
273 274 277 275 274 276 280 282 283 280 286 296 299 302 302 297 292 292 292 294 294 289 291 297 301 300 300 297 299 303 306 308 309 313 312 313 313 310 305 306 309 310 307
274 273 276 273 267 267 268 270 275 272 278 282 282 285 287 287 286 284 285 289 289 288 291 294 298 298 297 294 294 294 296 296 298 308 311 311 310 303 299 301 303 306 307
267 271 277 280 272 267 266 265 269 272 272 271 274 279 278 278 278 279 281 282 284 287 289 293 299 299 295 292 291 290 292 294 295 302 305 305 305 300 293 294 297 301 304
257 268 275 279 279 274 268 266 267 271 272 273 278 283 280 275 273 273 277 283 288 293 295 296 300 302 299 294 291 291 291 295 298 302 305 308 305 300 293 289 288 292 298
253 268 276 278 279 279 277 273 272 273 275 277 279 281 283 280 279 281 282 286 291 296 298 299 302 303 301 296 290 287 287 290 295 301 306 308 304 297 290 284 283 285 292
257 267 273 276 276 274 274 275 274 274 274 273 273 275 277 277 277 280 285 289 293 295 296 295 297 299 299 295 290 287 287 290 294 300 306 305 301 294 286 282 280 280 283
259 262 266 268 269 271 271 270 272 272 272 272 272 274 274 273 275 281 286 289 292 293 293 292 294 295 295 292 289 289 289 290 292 298 302 301 300 291 280 278 279 275 275
265 263 261 262 266 270 268 265 265 268 272 274 273 270 268 268 272 279 284 286 286 288 288 290 294 293 291 288 286 286 287 289 292 298 303 303 300 289 276 273 275 272 270
265 261 259 264 270 273 267 259 257 261 270 274 272 268 264 265 269 277 282 282 282 284 286 289 293 290 287 285 283 283 284 287 294 300 304 304 299 289 279 275 273 271 272
261 256 258 267 272 271 263 253 250 256 268 273 270 265 263 266 272 276 277 276 276 278 283 291 293 288 284 281 280 280 282 286 291 295 298 300 297 285 279 280 279 274 270
257 255 260 265 266 264 259 252 260 273 277 273 266 261 261 266 271 273 272 272 274 276 280 287 289 286 282 278 278 279 282 286 289 291 292 296 298 284 276 285 292 280 270
253 253 254 256 255 258 262 266 272 276 275 272 267 266 269 273 275 274 272 271 274 277 280 283 282 280 279 279 278 278 279 282 285 290 290 295 294 278 270 280 292 290 278
Height
5916 5914 5914 5915 5916 5916 5916 5916 5916 5916 5916 5916 5915 5915 5914 5913 5912 5910 5909 5908 5908 5907 5906 5905 5905 5904 5903 5903 5902 5902 5902 5901 5902 5902 5902 5901 5901 5901 5901 5901 5900 5900 5900
5918 5917 5917 5918 5918 5918 5919 5919 5919 5918 5918 5917 5917 5916 5915 5915 5913 5912 5910 5909 5908 5908 5907 5906 5905 5905 5905 5905 5904 5903 5902 5902 5902 5902 5902 5901 5901 5901 5900 5900 5900 5900 5901
5921 5920 5921 5921 5920 5920 5920 5921 5921 5920 5919 5918 5918 5917 5917 5916 5915 5913 5912 5910 5909 5908 5907 5906 5906 5906 5906 5906 5905 5905 5904 5904 5903 5902 5902 5902 5901 5900 5899 5899 5899 5900 5901
5923 5923 5923 5924 5923 5923 5922 5922 5922 5922 5921 5920 5919 5918 5917 5917 5916 5914 5912 5911 5909 5908 5908 5907 5907 5906 5906 5906 5905 5905 5905 5904 5904 5902 5902 5901 5900 5899 5899 5899 5899 5900 5900
5926 5926 5926 5926 5926 5926 5925 5924 5923 5923 5923 5922 5921 5919 5918 5917 5917 5915 5913 5912 5910 5909 5908 5907 5906 5906 5905 5905 5905 5905 5904 5904 5903 5903 5902 5901 5900 5899 5898 5898 5898 5899 5899
5928 5928 5927 5927 5928 5928 5927 5926 5925 5925 5924 5923 5922 5921 5920 5918 5917 5916 5915 5913 5911 5910 5908 5907 5907 5906 5905 5905 5904 5904 5903 5903 5902 5902 5901 5900 5899 5898 5897 5897 5897 5897 5897
5930 5930 5929 5929 5929 5929 5928 5927 5926 5925 5925 5924 5923 5922 5921 5920 5918 5917 5915 5914 5912 5910 5909 5908 5906 5906 5906 5905 5904 5903 5902 5901 5900 5900 5899 5898 5897 5896 5896 5895 5895 5895 5895
5930 5930 5931 5930 5930 5930 5929 5928 5927 5926 5925 5925 5924 5923 5922 5921 5919 5918 5916 5914 5912 5911 5909 5908 5906 5905 5905 5904 5904 5903 5902 5901 5899 5898 5897 5896 5895 5894 5894 5894 5893 5893 5893
5930 5930 5930 5930 5930 5930 5930 5929 5928 5926 5925 5924 5924 5923 5922 5921 5920 5918 5916 5914 5912 5911 5910 5908 5907 5906 5905 5904 5903 5902 5901 5900 5898 5897 5896 5894 5893 5891 5890 5891 5891 5891 5891
5929 5930 5929 5929 5929 5929 5929 5929 5928 5927 5925 5924 5923 5922 5921 5920 5919 5918 5916 5914 5912 5911 5910 5908 5907 5905 5904 5903 5902 5901 5900 5899 5897 5895 5894 5892 5891 5889 5888 5888 5888 5889 5889
5927 5928 5928 5928 5928 5927 5928 5928 5927 5926 5924 5923 5922 5921 5920 5919 5918 5917 5916 5914 5912 5910 5909 5907 5906 5904 5903 5902 5900 5899 5898 5897 5896 5894 5892 5891 5889 5887 5886 5885 5885 5885 5885
5925 5926 5926 5926 5925 5925 5925 5925 5925 5924 5922 5921 5921 5920 5918 5917 5916 5915 5914 5913 5911 5909 5907 5906 5904 5903 5902 5900 5899 5897 5896 5895 5895 5893 5890 5888 5887 5885 5883 5882 5881 5881 5880
5922 5923 5923 5923 5923 5922 5922 5922 5922 5921 5920 5919 5918 5917 5916 5915 5914 5913 5912 5911 5910 5908 5906 5904 5902 5901 5899 5898 5897 5896 5894 5893 5892 5891 5889 5886 5884 5883 5881 5880 5878 5877 5876
5920 5920 5920 5919 5918 5917 5918 5918 5918 5918 5917 5916 5916 5915 5913 5912 5912 5911 5910 5909 5908 5906 5904 5903 5901 5899 5897 5896 5895 5893 5892 5891 5889 5888 5887 5885 5883 5881 5879 5877 5875 5874 5873
5917 5916 5917 5917 5916 5915 5914 5914 5914 5914 5913 5913 5912 5911 5910 5909 5909 5908 5907 5906 5906 5904 5902 5900 5899 5898 5896 5894 5892 5890 5889 5888 5886 5885 5884 5883 5881 5879 5877 5874 5872 5871 5870
5913 5913 5913 5914 5914 5913 5913 5912 5912 5911 5910 5910 5909 5908 5908 5906 5905 5904 5903 5902 5901 5900 5899 5897 5895 5895 5893 5891 5890 5888 5886 5884 5883 5882 5881 5879 5878 5876 5874 5872 5870 5868 5866
5907 5907 5907 5908 5909 5909 5909 5909 5909 5909 5908 5907 5906 5905 5904 5903 5902 5900 5900 5899 5898 5896 5895 5894 5892 5891 5889 5887 5886 5885 5883 5881 5879 5878 5877 5875 5874 5872 5870 5868 5866 5864 5862
5902 5902 5902 5903 5903 5904 5904 5903 5904 5904 5903 5903 5902 5901 5900 5899 5898 5896 5896 5895 5894 5893 5892 5891 5889 5887 5885 5882 5881 5879 5878 5876 5875 5874 5872 5871 5869 5867 5865 5864 5862 5860 5859
5896 5896 5897 5897 5898 5898 5898 5897 5898 5898 5898 5897 5897 5896 5895 5894 5893 5891 5891 5891 5890 5889 5887 5886 5885 5883 5880 5878 5876 5875 5873 5871 5869 5868 5867 5866 5864 5862 5860 5859 5858 5856 5855
5891 5891 5891 5891 5891 5891 5891 5890 5891 5892 5892 5891 5891 5890 5889 5889 5888 5887 5886 5886 5885 5884 5883 5881 5880 5878 5876 5873 5871 5870 5869 5867 5865 5864 5863 5861 5859 5858 5856 5854 5853 5852 5850
5885 5885 5883 5883 5883 5883 5883 5883 5884 5885 5886 5885 5884 5884 5883 5882 5882 5882 5882 5881 5880 5878 5877 5876 5875 5873 5871 5868 5867 5866 5865 5863 5861 5860 5858 5856 5854 5853 5851 5850 5850 5848 5846
5875 5875 5874 5874 5874 5874 5874 5874 5875 5877 5878 5878 5878 5878 5877 5876 5876 5876 5876 5876 5874 5872 5872 5871 5870 5868 5865 5863 5862 5861 5861 5859 5857 5856 5855 5852 5850 5849 5848 5846 5846 5845 5843
5865 5865 5864 5865 5865 5865 5865 5865 5866 5869 5871 5872 5872 5871 5870 5870 5869 5869 5870 5869 5868 5867 5866 5865 5864 5863 5860 5858 5857 5856 5855 5854 5852 5852 5851 5848 5846 5845 5844 5843 5842 5841 5839
5857 5857 5857 5857 5857 5856 5855 5856 5858 5860 5863 5865 5865 5864 5864 5864 5863 5863 5862 5861 5860 5860 5860 5859 5858 5857 5855 5853 5852 5851 5850 5849 5848 5848 5847 5845 5843 5841 5840 5838 5837 5836 5835
5848 5849 5849 5848 5848 5848 5846 5848 5850 5852 5855 5857 5858 5858 5858 5858 5857 5856 5855 5854 5853 5853 5854 5853 5853 5852 5851 5849 5847 5846 5845 5844 5843 5843 5842 5841 5839 5837 5835 5834 5832 5831 5831
5837 5838 5838 5838 5838 5837 5838 5839 5841 5844 5847 5849 5851 5851 5851 5850 5849 5848 5847 5847 5846 5846 5846 5846 5847 5847 5846 5844 5843 5841 5840 5839 5838 5838 5838 5837 5835 5833 5831 5830 5829 5827 5827